| time (UTC) | temp C | wind direction | speed KPH | gust KPH | rain 1hr cm | rain 24hr cm | rain mn cm | humidity % | barometer mb |
| 20260503224636 | 4 | 0 | 0.0 | 0.0 | 0.00 | 0.00 | 0.00 | 99 | 973.0 |
| 20260503224125 | 4 | 0 | 0.0 | 0.0 | 0.00 | 0.00 | 0.00 | 99 | 973.0 |
| 20260503223614 | 4 | 0 | 0.0 | 0.0 | 0.00 | 0.00 | 0.00 | 99 | 973.0 |
| 20260503223102 | 4 | 0 | 0.0 | 0.0 | 0.00 | 0.00 | 0.00 | 99 | 973.0 |
| 20260503222551 | 4 | 0 | 0.0 | 0.0 | 0.00 | 0.00 | 0.00 | 99 | 973.0 |
| 20260503222040 | 4 | 0 | 0.0 | 0.0 | 0.00 | 0.00 | 0.00 | 99 | 973.0 |
| 20260503221528 | 5 | 0 | 0.0 | 0.0 | 0.00 | 0.00 | 0.00 | 99 | 973.0 |
| 20260503221017 | 5 | 0 | 0.0 | 0.0 | 0.00 | 0.00 | 0.00 | 99 | 973.0 |
| 20260503220505 | 4 | 0 | 0.0 | 0.0 | 0.00 | 0.00 | 0.00 | 99 | 973.0 |
| 20260503215954 | 5 | 0 | 0.0 | 0.0 | 0.00 | 0.00 | 0.00 | 99 | 973.0 |
| 20260503215443 | 4 | 0 | 0.0 | 0.0 | 0.00 | 0.00 | 0.00 | 99 | 973.0 |
| 20260503214931 | 4 | 0 | 0.0 | 0.0 | 0.00 | 0.00 | 0.00 | 99 | 973.0 |
| 20260503214420 | 4 | 0 | 0.0 | 0.0 | 0.00 | 0.00 | 0.00 | 99 | 973.0 |
| 20260503213909 | 4 | 0 | 0.0 | 0.0 | 0.00 | 0.00 | 0.00 | 99 | 973.0 |
| 20260503213357 | 4 | 0 | 0.0 | 0.0 | 0.00 | 0.00 | 0.00 | 99 | 973.0 |
| 20260503212846 | 4 | 0 | 0.0 | 0.0 | 0.00 | 0.00 | 0.00 | 99 | 973.0 |
| 20260503212335 | 4 | 0 | 0.0 | 0.0 | 0.00 | 0.00 | 0.00 | 99 | 973.0 |
| 20260503211823 | 4 | 0 | 0.0 | 0.0 | 0.00 | 0.00 | 0.00 | 99 | 973.0 |
| 20260503211312 | 4 | 0 | 0.0 | 0.0 | 0.00 | 0.00 | 0.00 | 99 | 973.0 |
| 20260503210801 | 5 | 0 | 0.0 | 0.0 | 0.00 | 0.00 | 0.00 | 99 | 973.0 |
| 20260503210249 | 5 | 0 | 0.0 | 0.0 | 0.00 | 0.00 | 0.00 | 99 | 973.0 |
| 20260503205738 | 5 | 0 | 0.0 | 0.0 | 0.00 | 0.00 | 0.00 | 99 | 973.0 |
| 20260503205226 | 5 | 0 | 0.0 | 0.0 | 0.00 | 0.00 | 0.00 | 99 | 973.0 |
| 20260503204715 | 5 | 0 | 0.0 | 0.0 | 0.00 | 0.00 | 0.00 | 99 | 973.0 |
| 20260503204204 | 4 | 0 | 0.0 | 0.0 | 0.00 | 0.00 | 0.00 | 99 | 973.0 |
| 20260503203652 | 5 | 0 | 0.0 | 0.0 | 0.00 | 0.00 | 0.00 | 99 | 973.0 |
| 20260503203141 | 4 | 0 | 0.0 | 0.0 | 0.00 | 0.00 | 0.00 | 99 | 973.0 |
| 20260503202630 | 5 | 0 | 0.0 | 0.0 | 0.00 | 0.00 | 0.00 | 99 | 973.0 |
| 20260503202118 | 5 | 0 | 0.0 | 0.0 | 0.00 | 0.00 | 0.00 | 99 | 973.0 |
| 20260503201607 | 4 | 0 | 0.0 | 0.0 | 0.00 | 0.00 | 0.00 | 99 | 973.0 |
| 20260503201055 | 5 | 0 | 0.0 | 0.0 | 0.00 | 0.00 | 0.00 | 99 | 973.0 |
| 20260503200544 | 5 | 0 | 0.0 | 0.0 | 0.00 | 0.00 | 0.00 | 99 | 973.0 |
| 20260503200033 | 5 | 0 | 0.0 | 0.0 | 0.00 | 0.00 | 0.00 | 99 | 973.0 |
| 20260503195521 | 5 | 0 | 0.0 | 0.0 | 0.00 | 0.00 | 0.00 | 99 | 973.0 |
| 20260503195010 | 5 | 0 | 0.0 | 0.0 | 0.00 | 0.00 | 0.00 | 99 | 973.0 |
| 20260503194459 | 5 | 0 | 0.0 | 0.0 | 0.00 | 0.00 | 0.00 | 99 | 973.0 |
| 20260503193947 | 5 | 0 | 0.0 | 0.0 | 0.00 | 0.00 | 0.00 | 99 | 973.0 |
| 20260503193436 | 5 | 0 | 0.0 | 0.0 | 0.00 | 0.00 | 0.00 | 99 | 973.0 |
| 20260503192925 | 5 | 0 | 0.0 | 0.0 | 0.00 | 0.00 | 0.00 | 99 | 974.0 |
| 20260503192413 | 6 | 0 | 0.0 | 0.0 | 0.00 | 0.00 | 0.00 | 99 | 973.0 |
| 20260503191902 | 5 | 0 | 0.0 | 0.0 | 0.00 | 0.00 | 0.00 | 99 | 973.0 |
| 20260503191351 | 6 | 0 | 0.0 | 0.0 | 0.00 | 0.00 | 0.00 | 99 | 974.0 |
| 20260503190839 | 6 | 0 | 0.0 | 0.0 | 0.00 | 0.00 | 0.00 | 99 | 973.0 |
| 20260503190328 | 5 | 0 | 0.0 | 0.0 | 0.00 | 0.00 | 0.00 | 99 | 973.0 |
| 20260503185816 | 5 | 0 | 0.0 | 0.0 | 0.00 | 0.00 | 0.00 | 99 | 973.0 |
| 20260503185305 | 5 | 0 | 0.0 | 0.0 | 0.00 | 0.00 | 0.00 | 99 | 973.0 |
| 20260503184754 | 5 | 0 | 0.0 | 0.0 | 0.00 | 0.00 | 0.00 | 99 | 973.0 |
| 20260503184242 | 6 | 0 | 0.0 | 0.0 | 0.00 | 0.00 | 0.00 | 99 | 973.0 |
| 20260503183731 | 6 | 0 | 0.0 | 0.0 | 0.00 | 0.00 | 0.00 | 99 | 973.0 |
| 20260503183220 | 6 | 0 | 0.0 | 0.0 | 0.00 | 0.00 | 0.00 | 99 | 973.0 |
| 20260503182708 | 6 | 0 | 0.0 | 0.0 | 0.00 | 0.00 | 0.00 | 99 | 973.0 |
| 20260503182157 | 6 | 0 | 0.0 | 0.0 | 0.00 | 0.00 | 0.00 | 99 | 973.0 |
| 20260503181645 | 6 | 0 | 0.0 | 0.0 | 0.00 | 0.00 | 0.00 | 99 | 973.0 |
| 20260503181134 | 7 | 0 | 0.0 | 0.0 | 0.00 | 0.00 | 0.00 | 99 | 973.0 |
| 20260503180623 | 7 | 0 | 0.0 | 0.0 | 0.00 | 0.00 | 0.00 | 99 | 973.0 |
| 20260503180112 | 7 | 0 | 0.0 | 0.0 | 0.00 | 0.00 | 0.00 | 99 | 973.0 |
| 20260503175600 | 7 | 0 | 0.0 | 0.0 | 0.00 | 0.00 | 0.00 | 99 | 973.0 |
| 20260503175049 | 7 | 0 | 0.0 | 0.0 | 0.00 | 0.00 | 0.00 | 99 | 973.0 |
| 20260503174537 | 7 | 0 | 0.0 | 0.0 | 0.00 | 0.00 | 0.00 | 99 | 973.0 |
| 20260503174026 | 7 | 0 | 0.0 | 0.0 | 0.00 | 0.00 | 0.00 | 99 | 973.0 |
| 20260503173515 | 7 | 0 | 0.0 | 0.0 | 0.00 | 0.00 | 0.00 | 99 | 973.0 |
| 20260503173003 | 7 | 0 | 0.0 | 0.0 | 0.00 | 0.00 | 0.00 | 99 | 973.0 |
| 20260503172452 | 8 | 0 | 0.0 | 0.0 | 0.00 | 0.00 | 0.00 | 99 | 973.0 |
| 20260503171941 | 8 | 0 | 0.0 | 0.0 | 0.00 | 0.00 | 0.00 | 99 | 973.0 |
| 20260503171429 | 8 | 0 | 0.0 | 0.0 | 0.00 | 0.00 | 0.00 | 99 | 973.0 |
| 20260503170918 | 8 | 0 | 0.0 | 0.0 | 0.00 | 0.00 | 0.00 | 99 | 973.0 |
| 20260503170407 | 10 | 0 | 0.0 | 0.0 | 0.00 | 0.00 | 0.00 | 87 | 973.0 |
| 20260503160150 | 12 | 0 | 0.0 | 0.0 | 0.00 | 0.00 | 0.00 | 58 | 973.0 |
| 20260503150956 | 13 | 0 | 0.0 | 0.0 | 0.00 | 0.00 | 0.00 | 58 | 973.0 |
| 20260503150445 | 13 | 0 | 0.0 | 0.0 | 0.00 | 0.00 | 0.00 | 57 | 973.0 |
| 20260503131336 | 13 | 0 | 0.0 | 0.0 | 0.00 | 0.00 | 0.00 | 55 | 974.0 |
| 20260503130825 | 12 | 0 | 0.0 | 0.0 | 0.00 | 0.00 | 0.00 | 55 | 974.0 |
| 20260503130314 | 13 | 0 | 0.0 | 0.0 | 0.00 | 0.00 | 0.00 | 58 | 974.0 |
| 20260503110352 | 11 | 0 | 0.0 | 0.0 | 0.00 | 0.00 | 0.00 | 65 | 975.0 |
| 20260503100136 | 11 | 0 | 0.0 | 0.0 | 0.00 | 0.00 | 0.00 | 89 | 975.0 |
| 20260503090431 | 12 | 0 | 0.0 | 0.0 | 0.00 | 0.00 | 0.00 | 81 | 975.0 |
| 20260503081535 | 9 | 0 | 0.0 | 0.0 | 0.00 | 0.00 | 0.00 | 99 | 976.0 |
| 20260503081023 | 9 | 0 | 0.0 | 0.0 | 0.00 | 0.00 | 0.00 | 99 | 976.0 |
| 20260503080512 | 10 | 0 | 0.0 | 0.0 | 0.00 | 0.00 | 0.00 | 99 | 976.0 |
| 20260503072853 | 9 | 0 | 0.0 | 0.0 | 0.00 | 0.00 | 0.00 | 99 | 976.0 |
| 20260503072341 | 9 | 0 | 0.0 | 0.0 | 0.00 | 0.00 | 0.00 | 99 | 976.0 |
| 20260503071830 | 8 | 0 | 0.0 | 0.0 | 0.00 | 0.00 | 0.00 | 99 | 976.0 |
| 20260503071319 | 8 | 0 | 0.0 | 0.0 | 0.00 | 0.00 | 0.00 | 99 | 976.0 |
| 20260503070807 | 9 | 0 | 0.0 | 0.0 | 0.00 | 0.00 | 0.00 | 99 | 976.0 |
| 20260503070256 | 10 | 0 | 0.0 | 0.0 | 0.00 | 0.00 | 0.00 | 99 | 976.0 |
| 20260503055017 | 8 | 0 | 0.0 | 0.0 | 0.00 | 0.00 | 0.00 | 99 | 976.0 |
| 20260503054505 | 8 | 0 | 0.0 | 0.0 | 0.00 | 0.00 | 0.00 | 99 | 976.0 |
| 20260503053954 | 8 | 0 | 0.0 | 0.0 | 0.00 | 0.00 | 0.00 | 99 | 975.0 |
| 20260503053443 | 7 | 0 | 0.0 | 0.0 | 0.00 | 0.00 | 0.00 | 99 | 975.0 |
| 20260503052931 | 7 | 0 | 0.0 | 0.0 | 0.00 | 0.00 | 0.00 | 99 | 975.0 |
| 20260503052420 | 7 | 0 | 0.0 | 0.0 | 0.00 | 0.00 | 0.00 | 99 | 975.0 |
| 20260503051909 | 7 | 0 | 0.0 | 0.0 | 0.00 | 0.00 | 0.00 | 99 | 975.0 |
| 20260503051357 | 6 | 0 | 0.0 | 0.0 | 0.00 | 0.00 | 0.00 | 99 | 975.0 |
| 20260503050846 | 7 | 0 | 0.0 | 0.0 | 0.00 | 0.00 | 0.00 | 99 | 975.0 |
| 20260503050335 | 6 | 0 | 0.0 | 0.0 | 0.00 | 0.00 | 0.00 | 99 | 975.0 |
| 20260503045823 | 6 | 0 | 0.0 | 0.0 | 0.00 | 0.00 | 0.00 | 99 | 975.0 |
| 20260503045312 | 5 | 0 | 0.0 | 0.0 | 0.00 | 0.00 | 0.00 | 99 | 975.0 |
| 20260503044800 | 5 | 0 | 0.0 | 0.0 | 0.00 | 0.00 | 0.00 | 99 | 975.0 |
| 20260503044249 | 5 | 0 | 0.0 | 0.0 | 0.00 | 0.00 | 0.00 | 99 | 975.0 |
| 20260503043738 | 5 | 0 | 0.0 | 0.0 | 0.00 | 0.00 | 0.00 | 99 | 975.0 |
| 20260503043226 | 4 | 0 | 0.0 | 0.0 | 0.00 | 0.00 | 0.00 | 99 | 975.0 |
| 20260503042715 | 4 | 0 | 0.0 | 0.0 | 0.00 | 0.00 | 0.00 | 99 | 975.0 |
| 20260503042204 | 4 | 0 | 0.0 | 0.0 | 0.00 | 0.00 | 0.00 | 99 | 975.0 |
| 20260503041652 | 3 | 0 | 0.0 | 0.0 | 0.00 | 0.00 | 0.00 | 99 | 975.0 |
| 20260503041141 | 4 | 0 | 0.0 | 0.0 | 0.00 | 0.00 | 0.00 | 99 | 975.0 |
| 20260503040631 | 4 | 0 | 0.0 | 0.0 | 0.00 | 0.00 | 0.00 | 99 | 975.0 |
| 20260503040118 | 4 | 0 | 0.0 | 0.0 | 0.00 | 0.00 | 0.00 | 99 | 975.0 |
| 20260503035607 | 3 | 0 | 0.0 | 0.0 | 0.00 | 0.00 | 0.00 | 99 | 975.0 |
| 20260503035055 | 3 | 0 | 0.0 | 0.0 | 0.00 | 0.00 | 0.00 | 99 | 975.0 |
| 20260503034544 | 3 | 0 | 0.0 | 0.0 | 0.00 | 0.00 | 0.00 | 99 | 975.0 |
| 20260503034033 | 3 | 0 | 0.0 | 0.0 | 0.00 | 0.00 | 0.00 | 99 | 975.0 |
| 20260503033521 | 3 | 0 | 0.0 | 0.0 | 0.00 | 0.00 | 0.00 | 99 | 975.0 |
| 20260503033010 | 3 | 0 | 0.0 | 0.0 | 0.00 | 0.00 | 0.00 | 99 | 975.0 |
| 20260503032459 | 3 | 0 | 0.0 | 0.0 | 0.00 | 0.00 | 0.00 | 99 | 975.0 |
| 20260503031947 | 3 | 0 | 0.0 | 0.0 | 0.00 | 0.00 | 0.00 | 99 | 975.0 |
| 20260503031436 | 3 | 0 | 0.0 | 0.0 | 0.00 | 0.00 | 0.00 | 99 | 975.0 |
| 20260503030925 | 3 | 0 | 0.0 | 0.0 | 0.00 | 0.00 | 0.00 | 99 | 975.0 |
| 20260503030413 | 3 | 0 | 0.0 | 0.0 | 0.00 | 0.00 | 0.00 | 99 | 975.0 |
| 20260503025902 | 3 | 0 | 0.0 | 0.0 | 0.00 | 0.00 | 0.00 | 99 | 975.0 |
| 20260503025350 | 3 | 0 | 0.0 | 0.0 | 0.00 | 0.00 | 0.00 | 99 | 975.0 |
| 20260503024839 | 4 | 0 | 0.0 | 0.0 | 0.00 | 0.00 | 0.00 | 99 | 975.0 |
| 20260503024328 | 4 | 0 | 0.0 | 0.0 | 0.00 | 0.00 | 0.00 | 99 | 975.0 |
| 20260503023816 | 4 | 0 | 0.0 | 0.0 | 0.00 | 0.00 | 0.00 | 99 | 975.0 |
| 20260503023305 | 3 | 0 | 0.0 | 0.0 | 0.00 | 0.00 | 0.00 | 99 | 974.0 |
| 20260503022754 | 4 | 0 | 0.0 | 0.0 | 0.00 | 0.00 | 0.00 | 99 | 974.0 |
| 20260503022242 | 4 | 0 | 0.0 | 0.0 | 0.00 | 0.00 | 0.00 | 99 | 974.0 |
| 20260503021731 | 5 | 0 | 0.0 | 0.0 | 0.00 | 0.00 | 0.00 | 99 | 974.0 |
| 20260503021220 | 5 | 0 | 0.0 | 0.0 | 0.00 | 0.00 | 0.00 | 99 | 974.0 |
| 20260503020708 | 4 | 0 | 0.0 | 0.0 | 0.00 | 0.00 | 0.00 | 99 | 974.0 |
| 20260503020157 | 5 | 0 | 0.0 | 0.0 | 0.00 | 0.00 | 0.00 | 99 | 974.0 |
| 20260503015646 | 5 | 0 | 0.0 | 0.0 | 0.00 | 0.00 | 0.00 | 99 | 974.0 |
| 20260503015134 | 5 | 0 | 0.0 | 0.0 | 0.00 | 0.00 | 0.00 | 99 | 974.0 |
| 20260503014623 | 5 | 0 | 0.0 | 0.0 | 0.00 | 0.00 | 0.00 | 99 | 974.0 |
| 20260503014111 | 4 | 0 | 0.0 | 0.0 | 0.00 | 0.00 | 0.00 | 99 | 974.0 |
| 20260503013600 | 4 | 0 | 0.0 | 0.0 | 0.00 | 0.00 | 0.00 | 99 | 974.0 |
| 20260503013049 | 5 | 0 | 0.0 | 0.0 | 0.00 | 0.00 | 0.00 | 99 | 974.0 |
| 20260503012537 | 5 | 0 | 0.0 | 0.0 | 0.00 | 0.00 | 0.00 | 99 | 974.0 |
| 20260503012026 | 5 | 0 | 0.0 | 0.0 | 0.00 | 0.00 | 0.00 | 99 | 974.0 |
| 20260503011515 | 5 | 0 | 0.0 | 0.0 | 0.00 | 0.00 | 0.00 | 99 | 974.0 |
| 20260503011004 | 5 | 0 | 0.0 | 0.0 | 0.00 | 0.00 | 0.00 | 99 | 974.0 |
| 20260503010452 | 5 | 0 | 0.0 | 0.0 | 0.00 | 0.00 | 0.00 | 99 | 974.0 |
| 20260503005941 | 5 | 0 | 0.0 | 0.0 | 0.00 | 0.00 | 0.00 | 99 | 974.0 |
| 20260503005429 | 5 | 0 | 0.0 | 0.0 | 0.00 | 0.00 | 0.00 | 99 | 975.0 |
| 20260503004918 | 4 | 0 | 0.0 | 0.0 | 0.00 | 0.00 | 0.00 | 99 | 975.0 |
| 20260503004407 | 5 | 0 | 0.0 | 0.0 | 0.00 | 0.00 | 0.00 | 99 | 975.0 |
| 20260503003855 | 5 | 0 | 0.0 | 0.0 | 0.00 | 0.00 | 0.00 | 99 | 974.0 |
| 20260503003344 | 5 | 0 | 0.0 | 0.0 | 0.00 | 0.00 | 0.00 | 99 | 975.0 |
| 20260503002832 | 5 | 0 | 0.0 | 0.0 | 0.00 | 0.00 | 0.00 | 99 | 975.0 |
| 20260503002321 | 4 | 0 | 0.0 | 0.0 | 0.00 | 0.00 | 0.00 | 99 | 975.0 |
| 20260503001810 | 5 | 0 | 0.0 | 0.0 | 0.00 | 0.00 | 0.00 | 99 | 975.0 |
| 20260503001258 | 5 | 0 | 0.0 | 0.0 | 0.00 | 0.00 | 0.00 | 99 | 975.0 |
| 20260503000747 | 5 | 0 | 0.0 | 0.0 | 0.00 | 0.00 | 0.00 | 99 | 975.0 |
| 20260503000236 | 5 | 0 | 0.0 | 0.0 | 0.00 | 0.00 | 0.00 | 99 | 975.0 |
| 20260502235724 | 6 | 0 | 0.0 | 0.0 | 0.00 | 0.00 | 0.00 | 99 | 975.0 |
| 20260502235213 | 6 | 0 | 0.0 | 0.0 | 0.00 | 0.00 | 0.00 | 99 | 975.0 |
| 20260502234702 | 5 | 0 | 0.0 | 0.0 | 0.00 | 0.00 | 0.00 | 99 | 975.0 |
| 20260502234150 | 5 | 0 | 0.0 | 0.0 | 0.00 | 0.00 | 0.00 | 99 | 975.0 |
| 20260502233639 | 5 | 0 | 0.0 | 0.0 | 0.00 | 0.00 | 0.00 | 99 | 975.0 |
| 20260502233127 | 6 | 0 | 0.0 | 0.0 | 0.00 | 0.00 | 0.00 | 99 | 975.0 |
| 20260502232616 | 6 | 0 | 0.0 | 0.0 | 0.00 | 0.00 | 0.00 | 99 | 975.0 |
| 20260502232105 | 6 | 0 | 0.0 | 0.0 | 0.00 | 0.00 | 0.00 | 99 | 975.0 |
| 20260502231553 | 6 | 0 | 0.0 | 0.0 | 0.00 | 0.00 | 0.00 | 99 | 975.0 |
| 20260502231042 | 6 | 0 | 0.0 | 0.0 | 0.00 | 0.00 | 0.00 | 99 | 975.0 |
| 20260502230531 | 6 | 0 | 0.0 | 0.0 | 0.00 | 0.00 | 0.00 | 99 | 975.0 |
| 20260502230019 | 6 | 0 | 0.0 | 0.0 | 0.00 | 0.00 | 0.00 | 99 | 975.0 |
| 20260502225508 | 6 | 0 | 0.0 | 0.0 | 0.00 | 0.00 | 0.00 | 99 | 975.0 |